Powrót do katalogu

CZ-6A DEB

AktywnySSO
NORAD 55513·DEBRIS·🇨🇳 China

Wystrzelony Nov 11, 2022 z Taiyuan Satellite Launch Center

Loading…

Następne Przeloty (najbliższe 24 godziny)

TLE

Starzejące sięSource: Space-Track

Epoka: Sep 10, 2026, 05:02 UTC

1 55513U 22151XK  26253.20998141  .00000242  00000-0  16377-3 0  9997
2 55513  98.8572 248.4288 0053311 107.9825 252.7165 14.08511158193354

Śledź CZ-6A DEB w czasie rzeczywistym z AllMySat

Download on the App Store